Time,TemperatureF,DewpointF,PressureIn,WindDirection,WindDirectionDegrees,WindSpeedMPH,WindSpeedGustMPH,Humidity,HourlyPrecipIn,Conditions,Clouds,dailyrainin,SoftwareType,DateUTC
2013-12-08 00:00:00,18.3,0.0,0.00,SSW,196,0.0,6.0,0,0.00,BKN,BKN,0.00,WeatherDisplay:10.37,2013-12-08 05:00:00,
2013-12-08 00:10:00,19.0,0.0,0.00,SSW,200,0.0,6.0,0,0.00,BKN,BKN,0.00,WeatherDisplay:10.37,2013-12-08 05:10:00,
2013-12-08 00:15:00,18.2,0.0,0.00,SSW,202,0.0,0.0,0,0.00,BKN,BKN,0.00,WeatherDisplay:10.37,2013-12-08 05:15:00,
2013-12-08 00:20:00,18.4,0.0,0.00,SSW,202,0.0,0.0,0,0.00,BKN,BKN,0.00,WeatherDisplay:10.37,2013-12-08 05:20:00,
2013-12-08 00:30:00,18.0,0.0,0.00,SSW,198,5.0,6.0,0,0.00,BKN,BKN,0.00,WeatherDisplay:10.37,2013-12-08 05:30:00,
2013-12-08 00:40:00,18.0,0.0,0.00,SSW,202,0.0,6.0,0,0.00,BKN,BKN,0.00,WeatherDisplay:10.37,2013-12-08 05:40:00,
2013-12-08 00:45:00,18.0,0.0,0.00,SSW,202,0.0,0.0,0,0.00,BKN,BKN,0.00,WeatherDisplay:10.37,2013-12-08 05:45:00,
2013-12-08 00:50:00,18.0,0.0,0.00,SSW,202,0.0,0.0,0,0.00,BKN,BKN,0.00,WeatherDisplay:10.37,2013-12-08 05:50:00,
2013-12-08 01:00:00,18.0,0.0,0.00,SSW,202,0.0,0.0,0,0.00,BKN,BKN,0.00,WeatherDisplay:10.37,2013-12-08 06:00:00,
2013-12-08 01:10:00,18.0,0.0,0.00,SSW,202,0.0,0.0,0,0.00,OVC,OVC,0.00,WeatherDisplay:10.37,2013-12-08 06:10:00,
2013-12-08 01:20:00,17.0,0.0,0.00,SSW,202,0.0,0.0,0,0.00,OVC,OVC,0.00,WeatherDisplay:10.37,2013-12-08 06:20:00,
2013-12-08 01:30:00,17.0,0.0,0.00,SSW,202,0.0,0.0,0,0.00,OVC,OVC,0.00,WeatherDisplay:10.37,2013-12-08 06:30:00,
2013-12-08 01:40:00,17.0,0.0,0.00,SSW,202,0.0,0.0,0,0.00,OVC,OVC,0.00,WeatherDisplay:10.37,2013-12-08 06:40:00,
2013-12-08 01:50:00,17.0,0.0,0.00,SSW,202,0.0,0.0,0,0.00,OVC,OVC,0.00,WeatherDisplay:10.37,2013-12-08 06:50:00,
2013-12-08 02:00:00,16.0,0.0,0.00,SSW,202,0.0,0.0,0,0.00,OVC,OVC,0.00,WeatherDisplay:10.37,2013-12-08 07:00:00,
2013-12-08 02:10:00,16.0,0.0,0.00,SSW,202,0.0,0.0,0,0.00,SCT,SCT,0.00,WeatherDisplay:10.37,2013-12-08 07:10:00,
2013-12-08 02:20:00,16.0,0.0,0.00,SSE,165,5.0,6.0,0,0.00,SCT,SCT,0.00,WeatherDisplay:10.37,2013-12-08 07:20:00,
2013-12-08 02:30:00,16.0,0.0,0.00,SSE,163,3.0,7.0,0,0.00,SCT,SCT,0.00,WeatherDisplay:10.37,2013-12-08 07:30:00,
2013-12-08 02:40:00,16.0,0.0,0.00,South,175,3.0,5.0,0,0.00,SCT,SCT,0.00,WeatherDisplay:10.37,2013-12-08 07:40:00,
2013-12-08 02:50:00,16.0,0.0,0.00,South,179,3.0,4.0,0,0.00,SCT,SCT,0.00,WeatherDisplay:10.37,2013-12-08 07:50:00,
2013-12-08 03:00:00,16.0,0.0,0.00,South,179,5.0,5.0,0,0.00,SCT,SCT,0.00,WeatherDisplay:10.37,2013-12-08 08:00:00,
2013-12-08 03:10:00,16.0,0.0,0.00,SSE,161,0.0,5.0,0,0.00,SCT,SCT,0.00,WeatherDisplay:10.37,2013-12-08 08:10:00,
2013-12-08 03:20:00,16.0,0.0,0.00,SSE,158,0.0,0.0,0,0.00,SCT,SCT,0.00,WeatherDisplay:10.37,2013-12-08 08:20:00,
2013-12-08 03:30:00,16.0,0.0,0.00,SSE,158,0.0,0.0,0,0.00,SCT,SCT,0.00,WeatherDisplay:10.37,2013-12-08 08:30:00,
2013-12-08 03:40:00,17.0,0.0,0.00,SSE,158,0.0,0.0,0,0.00,SCT,SCT,0.00,WeatherDisplay:10.37,2013-12-08 08:40:00,
2013-12-08 03:50:00,16.2,0.0,0.00,SSE,158,0.0,0.0,0,0.00,SCT,SCT,0.00,WeatherDisplay:10.37,2013-12-08 08:50:00,
2013-12-08 04:00:00,17.0,0.0,0.00,SSE,158,0.0,0.0,0,0.00,SCT,SCT,0.00,WeatherDisplay:10.37,2013-12-08 09:00:00,
2013-12-08 04:10:00,17.0,0.0,0.00,SSE,158,0.0,0.0,0,0.00,SCT,SCT,0.00,WeatherDisplay:10.37,2013-12-08 09:10:00,
2013-12-08 04:20:00,17.0,0.0,0.00,SSE,158,0.0,0.0,0,0.00,SCT,SCT,0.00,WeatherDisplay:10.37,2013-12-08 09:20:00,
2013-12-08 04:30:00,17.0,0.0,0.00,SSE,158,0.0,0.0,0,0.00,SCT,SCT,0.00,WeatherDisplay:10.37,2013-12-08 09:30:00,
2013-12-08 04:40:00,17.0,0.0,0.00,SSE,158,0.0,0.0,0,0.00,SCT,SCT,0.00,WeatherDisplay:10.37,2013-12-08 09:40:00,
2013-12-08 04:50:00,17.0,0.0,0.00,SSE,158,0.0,0.0,0,0.00,SCT,SCT,0.00,WeatherDisplay:10.37,2013-12-08 09:50:00,
2013-12-08 05:00:00,17.0,0.0,0.00,SSE,158,0.0,0.0,0,0.00,SCT,SCT,0.00,WeatherDisplay:10.37,2013-12-08 10:00:00,
2013-12-08 05:10:00,17.0,0.0,0.00,SSE,158,0.0,0.0,0,0.00,SCT,SCT,0.00,WeatherDisplay:10.37,2013-12-08 10:10:00,
2013-12-08 05:20:00,17.0,0.0,0.00,SSE,158,0.0,0.0,0,0.00,BKN,BKN,0.00,WeatherDisplay:10.37,2013-12-08 10:20:00,
2013-12-08 05:30:00,18.0,0.0,0.00,SSE,158,0.0,0.0,0,0.00,BKN,BKN,0.00,WeatherDisplay:10.37,2013-12-08 10:30:00,
2013-12-08 05:40:00,18.0,0.0,0.00,SSE,158,0.0,0.0,0,0.00,BKN,BKN,0.00,WeatherDisplay:10.37,2013-12-08 10:40:00,
2013-12-08 05:50:00,18.0,0.0,0.00,SSE,158,0.0,0.0,0,0.00,BKN,BKN,0.00,WeatherDisplay:10.37,2013-12-08 10:50:00,
2013-12-08 06:00:00,18.0,0.0,0.00,SE,126,6.0,8.0,0,0.00,BKN,BKN,0.00,WeatherDisplay:10.37,2013-12-08 11:00:00,
2013-12-08 06:10:00,18.0,0.0,0.00,ESE,114,7.0,9.0,0,0.00,BKN,BKN,0.00,WeatherDisplay:10.37,2013-12-08 11:10:00,
2013-12-08 06:20:00,18.1,0.0,0.00,ESE,104,5.0,7.0,0,0.00,BKN,BKN,0.00,WeatherDisplay:10.37,2013-12-08 11:20:00,
2013-12-08 06:30:00,19.0,0.0,0.00,ESE,102,3.0,6.0,0,0.00,BKN,BKN,0.00,WeatherDisplay:10.37,2013-12-08 11:30:00,
2013-12-08 06:40:00,19.0,0.0,0.00,SE,132,3.0,6.0,0,0.00,BKN,BKN,0.00,WeatherDisplay:10.37,2013-12-08 11:40:00,
2013-12-08 06:50:00,19.0,0.0,0.00,ESE,120,3.0,6.0,0,0.00,BKN,BKN,0.00,WeatherDisplay:10.37,2013-12-08 11:50:00,
2013-12-08 07:00:00,19.0,0.0,0.00,ESE,106,3.0,7.0,0,0.00,BKN,BKN,0.00,WeatherDisplay:10.37,2013-12-08 12:00:00,
2013-12-08 07:10:00,19.0,0.0,0.00,East,90,3.0,7.0,0,0.00,BKN,BKN,0.00,WeatherDisplay:10.37,2013-12-08 12:10:00,
2013-12-08 07:20:00,19.0,0.0,0.00,East,91,3.0,5.0,0,0.00,BKN,BKN,0.00,WeatherDisplay:10.37,2013-12-08 12:20:00,
2013-12-08 07:30:00,19.0,0.0,0.00,East,101,5.0,7.0,0,0.00,BKN,BKN,0.00,WeatherDisplay:10.37,2013-12-08 12:30:00,
2013-12-08 07:40:00,19.0,0.0,0.00,East,97,5.0,7.0,0,0.00,BKN,BKN,0.00,WeatherDisplay:10.37,2013-12-08 12:40:00,
2013-12-08 07:50:00,19.0,0.0,0.00,East,88,8.0,12.0,0,0.00,BKN,BKN,0.00,WeatherDisplay:10.37,2013-12-08 12:50:00,
2013-12-08 08:00:00,19.1,0.0,0.00,East,88,8.0,14.0,0,0.00,BKN,BKN,0.00,WeatherDisplay:10.37,2013-12-08 13:00:00,
2013-12-08 08:10:00,19.9,0.0,0.00,East,88,5.0,12.0,0,0.00,OVC,OVC,0.00,WeatherDisplay:10.37,2013-12-08 13:10:00,
2013-12-08 08:20:00,19.2,0.0,0.00,East,85,8.0,12.0,0,0.00,OVC,OVC,0.00,WeatherDisplay:10.37,2013-12-08 13:20:00,
2013-12-08 08:30:00,20.0,0.0,0.00,East,86,8.0,14.0,0,0.00,OVC,OVC,0.00,WeatherDisplay:10.37,2013-12-08 13:30:00,
2013-12-08 08:40:00,20.0,0.0,0.00,East,79,10.0,14.0,0,0.00,OVC,OVC,0.00,WeatherDisplay:10.37,2013-12-08 13:40:00,
2013-12-08 08:50:00,20.9,0.0,0.00,East,79,10.0,15.0,0,0.00,OVC,OVC,0.00,WeatherDisplay:10.37,2013-12-08 13:50:00,
2013-12-08 09:00:00,20.0,0.0,0.00,East,85,8.0,13.0,0,0.00,OVC,OVC,0.00,WeatherDisplay:10.37,2013-12-08 14:00:00,
2013-12-08 09:10:00,20.0,0.0,0.00,East,81,7.0,14.0,0,0.00,OVC,OVC,0.00,WeatherDisplay:10.37,2013-12-08 14:10:00,
2013-12-08 09:20:00,20.1,0.0,0.00,East,84,9.0,14.0,0,0.00,OVC,OVC,0.00,WeatherDisplay:10.37,2013-12-08 14:20:00,
2013-12-08 09:30:00,20.0,0.0,0.00,East,86,8.0,15.0,0,0.00,OVC,OVC,0.00,WeatherDisplay:10.37,2013-12-08 14:30:00,
2013-12-08 09:40:00,21.0,0.0,0.00,East,80,7.0,12.0,0,0.00,OVC,OVC,0.00,WeatherDisplay:10.37,2013-12-08 14:40:00,
2013-12-08 09:50:00,21.6,0.0,0.00,East,93,12.0,16.0,0,0.00,OVC,OVC,0.00,WeatherDisplay:10.37,2013-12-08 14:50:00,
2013-12-08 10:00:00,21.3,0.0,0.00,East,87,9.0,16.0,0,0.00,OVC,OVC,0.00,WeatherDisplay:10.37,2013-12-08 15:00:00,
2013-12-08 10:10:00,21.7,0.0,0.00,East,86,8.0,20.0,0,0.00,OVC,OVC,0.00,WeatherDisplay:10.37,2013-12-08 15:10:00,
2013-12-08 10:20:00,21.7,0.0,0.00,East,87,13.0,20.0,0,0.00,OVC,OVC,0.00,WeatherDisplay:10.37,2013-12-08 15:20:00,
2013-12-08 10:30:00,22.4,0.0,0.00,East,86,15.0,20.0,0,0.00,OVC,OVC,0.00,WeatherDisplay:10.37,2013-12-08 15:30:00,
2013-12-08 10:40:00,22.6,0.0,0.00,East,85,16.0,24.0,0,0.00,OVC,OVC,0.00,WeatherDisplay:10.37,2013-12-08 15:40:00,
2013-12-08 10:50:00,22.2,0.0,0.00,East,81,9.0,21.0,0,0.00,OVC,OVC,0.00,WeatherDisplay:10.37,2013-12-08 15:50:00,
2013-12-08 11:00:00,23.0,0.0,0.00,East,89,15.0,20.0,0,0.00,OVC,OVC,0.00,WeatherDisplay:10.37,2013-12-08 16:00:00,
2013-12-08 11:10:00,23.0,0.0,0.00,East,90,16.0,21.0,0,0.00,OVC,OVC,0.00,WeatherDisplay:10.37,2013-12-08 16:10:00,
2013-12-08 11:20:00,23.0,0.0,0.00,East,96,12.0,20.0,0,0.00,OVC,OVC,0.00,WeatherDisplay:10.37,2013-12-08 16:20:00,
2013-12-08 11:30:00,23.8,0.0,0.00,East,99,12.0,22.0,0,0.00,OVC,OVC,0.00,WeatherDisplay:10.37,2013-12-08 16:30:00,
2013-12-08 11:40:00,23.8,0.0,0.00,East,96,12.0,18.0,0,0.00,OVC,OVC,0.00,WeatherDisplay:10.37,2013-12-08 16:40:00,
2013-12-08 11:50:00,23.0,0.0,0.00,East,96,7.0,18.0,0,0.00,OVC,OVC,0.00,WeatherDisplay:10.37,2013-12-08 16:50:00,
2013-12-08 12:00:00,23.7,0.0,0.00,ESE,105,10.0,14.0,0,0.00,OVC,OVC,0.00,WeatherDisplay:10.37,2013-12-08 17:00:00,
2013-12-08 12:10:00,23.3,0.0,0.00,ESE,106,9.0,16.0,0,0.00,OVC,OVC,0.00,WeatherDisplay:10.37,2013-12-08 17:10:00,
2013-12-08 12:20:00,23.5,0.0,0.00,ESE,103,9.0,16.0,0,0.00,OVC,OVC,0.00,WeatherDisplay:10.37,2013-12-08 17:20:00,
2013-12-08 12:30:00,23.4,0.0,0.00,ESE,107,9.0,18.0,0,0.00,OVC,OVC,0.00,WeatherDisplay:10.37,2013-12-08 17:30:00,
2013-12-08 12:40:00,23.4,0.0,0.00,East,101,9.0,13.0,0,0.00,OVC,OVC,0.00,WeatherDisplay:10.37,2013-12-08 17:40:00,
2013-12-08 12:50:00,23.3,0.0,0.00,ESE,102,8.0,20.0,0,0.00,OVC,OVC,0.00,WeatherDisplay:10.37,2013-12-08 17:50:00,
2013-12-08 13:00:00,23.7,0.0,0.00,East,97,9.0,14.0,0,0.00,OVC,OVC,0.00,WeatherDisplay:10.37,2013-12-08 18:00:00,
2013-12-08 13:10:00,24.0,0.0,0.00,East,85,13.0,18.0,0,0.00,-SN,-SN,0.00,WeatherDisplay:10.37,2013-12-08 18:10:00,
2013-12-08 13:20:00,24.3,0.0,0.00,East,86,10.0,15.0,0,0.00,-SN,-SN,0.00,WeatherDisplay:10.37,2013-12-08 18:20:00,
2013-12-08 13:30:00,24.4,0.0,0.00,ENE,76,13.0,18.0,0,0.00,-SN,-SN,0.00,WeatherDisplay:10.37,2013-12-08 18:30:00,
2013-12-08 13:40:00,24.4,0.0,0.00,East,87,7.0,20.0,0,0.00,-SN,-SN,0.00,WeatherDisplay:10.37,2013-12-08 18:40:00,
2013-12-08 13:50:00,24.7,0.0,0.00,East,83,14.0,20.0,0,0.00,-SN,-SN,0.00,WeatherDisplay:10.37,2013-12-08 18:50:00,
2013-12-08 14:00:00,25.0,0.0,0.00,ENE,77,15.0,20.0,0,0.00,-SN,-SN,0.00,WeatherDisplay:10.37,2013-12-08 19:00:00,
2013-12-08 14:10:00,25.0,0.0,0.00,East,85,8.0,21.0,0,0.00,-SN,-SN,0.00,WeatherDisplay:10.37,2013-12-08 19:10:00,
2013-12-08 14:20:00,25.0,0.0,0.00,East,89,9.0,14.0,0,0.00,-SN,-SN,0.00,WeatherDisplay:10.37,2013-12-08 19:20:00,
2013-12-08 14:30:00,25.0,0.0,0.00,East,84,13.0,18.0,0,0.00,-SN,-SN,0.00,WeatherDisplay:10.37,2013-12-08 19:30:00,
2013-12-08 14:40:00,25.7,0.0,0.00,East,90,5.0,15.0,0,0.00,-SN,-SN,0.00,WeatherDisplay:10.37,2013-12-08 19:40:00,
2013-12-08 14:50:00,26.0,0.0,0.00,ESE,102,10.0,14.0,0,0.00,-SN,-SN,0.00,WeatherDisplay:10.37,2013-12-08 19:50:00,
2013-12-08 15:00:00,26.0,0.0,0.00,ESE,102,8.0,14.0,0,0.00,-SN,-SN,0.00,WeatherDisplay:10.37,2013-12-08 20:00:00,
2013-12-08 15:10:00,26.0,0.0,0.00,East,90,10.0,16.0,0,0.00,-SN,-SN,0.00,WeatherDisplay:10.37,2013-12-08 20:10:00,
2013-12-08 15:20:00,26.0,0.0,0.00,East,93,8.0,16.0,0,0.00,-SN,-SN,0.00,WeatherDisplay:10.37,2013-12-08 20:20:00,
2013-12-08 15:30:00,25.5,0.0,0.00,East,90,8.0,15.0,0,0.00,-SN,-SN,0.00,WeatherDisplay:10.37,2013-12-08 20:30:00,
2013-12-08 15:40:00,25.8,0.0,0.00,East,89,8.0,16.0,0,0.00,-SN,-SN,0.00,WeatherDisplay:10.37,2013-12-08 20:40:00,
2013-12-08 15:50:00,25.0,0.0,0.00,East,87,9.0,15.0,0,0.00,-SN,-SN,0.00,WeatherDisplay:10.37,2013-12-08 20:50:00,
2013-12-08 16:00:00,25.8,0.0,0.00,East,84,8.0,14.0,0,0.00,-SN,-SN,0.00,WeatherDisplay:10.37,2013-12-08 21:00:00,
2013-12-08 16:10:00,25.3,0.0,0.00,East,89,5.0,14.0,0,0.00,OVC,OVC,0.00,WeatherDisplay:10.37,2013-12-08 21:10:00,
2013-12-08 16:20:00,25.0,0.0,0.00,East,81,7.0,14.0,0,0.00,OVC,OVC,0.00,WeatherDisplay:10.37,2013-12-08 21:20:00,
2013-12-08 16:30:00,25.1,0.0,0.00,East,82,12.0,17.0,0,0.00,OVC,OVC,0.00,WeatherDisplay:10.37,2013-12-08 21:30:00,
2013-12-08 16:40:00,25.3,0.0,0.00,East,79,8.0,17.0,0,0.00,OVC,OVC,0.00,WeatherDisplay:10.37,2013-12-08 21:40:00,
2013-12-08 16:50:00,25.4,0.0,0.00,East,87,7.0,14.0,0,0.00,OVC,OVC,0.00,WeatherDisplay:10.37,2013-12-08 21:50:00,
2013-12-08 17:00:00,25.7,0.0,0.00,East,93,10.0,16.0,0,0.00,OVC,OVC,0.00,WeatherDisplay:10.37,2013-12-08 22:00:00,
2013-12-08 17:10:00,25.3,0.0,0.00,East,88,8.0,15.0,0,0.00,OVC,OVC,0.00,WeatherDisplay:10.37,2013-12-08 22:10:00,
2013-12-08 17:20:00,25.0,0.0,0.00,East,94,12.0,18.0,0,0.00,OVC,OVC,0.00,WeatherDisplay:10.37,2013-12-08 22:20:00,
2013-12-08 17:30:00,25.6,0.0,0.00,East,97,10.0,18.0,0,0.00,OVC,OVC,0.00,WeatherDisplay:10.37,2013-12-08 22:30:00,
2013-12-08 17:40:00,25.7,0.0,0.00,East,91,13.0,18.0,0,0.00,OVC,OVC,0.00,WeatherDisplay:10.37,2013-12-08 22:40:00,
2013-12-08 17:50:00,25.5,0.0,0.00,East,97,13.0,17.0,0,0.00,OVC,OVC,0.00,WeatherDisplay:10.37,2013-12-08 22:50:00,
2013-12-08 18:00:00,25.7,0.0,0.00,East,94,10.0,18.0,0,0.00,OVC,OVC,0.00,WeatherDisplay:10.37,2013-12-08 23:00:00,
2013-12-08 18:10:00,25.0,0.0,0.00,East,98,7.0,20.0,0,0.00,OVC,OVC,0.00,WeatherDisplay:10.37,2013-12-08 23:10:00,
2013-12-08 18:20:00,26.0,0.0,0.00,East,101,14.0,20.0,0,0.00,OVC,OVC,0.00,WeatherDisplay:10.37,2013-12-08 23:20:00,
2013-12-08 18:30:00,26.0,0.0,0.00,ESE,102,13.0,22.0,0,0.00,OVC,OVC,0.00,WeatherDisplay:10.37,2013-12-08 23:30:00,
2013-12-08 18:40:00,25.4,0.0,0.00,ESE,106,12.0,24.0,0,0.00,OVC,OVC,0.00,WeatherDisplay:10.37,2013-12-08 23:40:00,
2013-12-08 18:50:00,25.3,0.0,0.00,ESE,103,14.0,20.0,0,0.00,OVC,OVC,0.00,WeatherDisplay:10.37,2013-12-08 23:50:00,
2013-12-08 19:00:00,25.4,0.0,0.00,East,100,12.0,22.0,0,0.00,OVC,OVC,0.00,WeatherDisplay:10.37,2013-12-09 00:00:00,
2013-12-08 19:10:00,25.9,0.0,0.00,ESE,103,12.0,20.0,0,0.00,OVC,OVC,0.00,WeatherDisplay:10.37,2013-12-09 00:10:00,
2013-12-08 19:20:00,25.9,0.0,0.00,East,100,14.0,17.0,0,0.00,OVC,OVC,0.00,WeatherDisplay:10.37,2013-12-09 00:20:00,
2013-12-08 19:30:00,25.5,0.0,0.00,ESE,102,9.0,20.0,0,0.00,OVC,OVC,0.00,WeatherDisplay:10.37,2013-12-09 00:30:00,
2013-12-08 19:40:00,25.1,0.0,0.00,East,101,13.0,18.0,0,0.00,OVC,OVC,0.00,WeatherDisplay:10.37,2013-12-09 00:40:00,
2013-12-08 19:50:00,25.4,0.0,0.00,East,100,7.0,17.0,0,0.00,OVC,OVC,0.00,WeatherDisplay:10.37,2013-12-09 00:50:00,
2013-12-08 20:00:00,25.7,0.0,0.00,East,101,14.0,20.0,0,0.00,OVC,OVC,0.00,WeatherDisplay:10.37,2013-12-09 01:00:00,
2013-12-08 20:10:00,25.1,0.0,0.00,East,101,9.0,16.0,0,0.00,OVC,OVC,0.00,WeatherDisplay:10.37,2013-12-09 01:10:00,
2013-12-08 20:20:00,25.4,0.0,0.00,East,98,12.0,20.0,0,0.00,OVC,OVC,0.00,WeatherDisplay:10.37,2013-12-09 01:20:00,
2013-12-08 20:30:00,26.0,0.0,0.00,ESE,104,12.0,18.0,0,0.00,OVC,OVC,0.00,WeatherDisplay:10.37,2013-12-09 01:30:00,
2013-12-08 20:40:00,25.4,0.0,0.00,East,101,13.0,21.0,0,0.00,OVC,OVC,0.00,WeatherDisplay:10.37,2013-12-09 01:40:00,
2013-12-08 20:50:00,25.6,0.0,0.00,ESE,105,14.0,21.0,0,0.00,OVC,OVC,0.00,WeatherDisplay:10.37,2013-12-09 01:50:00,
2013-12-08 21:00:00,25.7,0.0,0.00,ESE,109,18.0,25.0,0,0.00,OVC,OVC,0.00,WeatherDisplay:10.37,2013-12-09 02:00:00,
2013-12-08 21:10:00,25.1,0.0,0.00,ESE,107,10.0,24.0,0,0.00,OVC,OVC,0.00,WeatherDisplay:10.37,2013-12-09 02:10:00,
2013-12-08 21:20:00,25.9,0.0,0.00,ESE,113,10.0,28.0,0,0.00,OVC,OVC,0.00,WeatherDisplay:10.37,2013-12-09 02:20:00,
2013-12-08 21:30:00,26.0,0.0,0.00,ESE,122,16.0,24.0,0,0.00,OVC,OVC,0.00,WeatherDisplay:10.37,2013-12-09 02:30:00,
2013-12-08 21:40:00,25.7,0.0,0.00,ESE,121,9.0,20.0,0,0.00,OVC,OVC,0.00,WeatherDisplay:10.37,2013-12-09 02:40:00,
2013-12-08 21:50:00,26.0,0.0,0.00,SE,125,8.0,15.0,0,0.00,OVC,OVC,0.00,WeatherDisplay:10.37,2013-12-09 02:50:00,
2013-12-08 22:00:00,26.0,0.0,0.00,ESE,121,14.0,20.0,0,0.00,OVC,OVC,0.00,WeatherDisplay:10.37,2013-12-09 03:00:00,
2013-12-08 22:10:00,26.0,0.0,0.00,ESE,122,12.0,20.0,0,0.00,OVC,OVC,0.00,WeatherDisplay:10.37,2013-12-09 03:10:00,
2013-12-08 22:20:00,26.0,0.0,0.00,ESE,119,12.0,17.0,0,0.00,OVC,OVC,0.00,WeatherDisplay:10.37,2013-12-09 03:20:00,
2013-12-08 22:30:00,26.0,0.0,0.00,ESE,121,12.0,17.0,0,0.00,OVC,OVC,0.00,WeatherDisplay:10.37,2013-12-09 03:30:00,
2013-12-08 22:40:00,26.0,0.0,0.00,ESE,120,13.0,17.0,0,0.00,OVC,OVC,0.00,WeatherDisplay:10.37,2013-12-09 03:40:00,
2013-12-08 22:50:00,26.0,0.0,0.00,SE,128,9.0,16.0,0,0.00,OVC,OVC,0.00,WeatherDisplay:10.37,2013-12-09 03:50:00,
2013-12-08 23:00:00,26.0,0.0,0.00,SE,125,9.0,17.0,0,0.00,OVC,OVC,0.00,WeatherDisplay:10.37,2013-12-09 04:00:00,
2013-12-08 23:10:00,26.0,0.0,0.00,SE,124,9.0,15.0,0,0.00,OVC,OVC,0.00,WeatherDisplay:10.37,2013-12-09 04:10:00,
2013-12-08 23:20:00,26.0,0.0,0.00,SE,124,10.0,16.0,0,0.00,OVC,OVC,0.00,WeatherDisplay:10.37,2013-12-09 04:20:00,
2013-12-08 23:30:00,26.3,0.0,0.00,SE,128,9.0,15.0,0,0.00,OVC,OVC,0.00,WeatherDisplay:10.37,2013-12-09 04:30:00,
2013-12-08 23:40:00,26.3,0.0,0.00,SE,126,9.0,17.0,0,0.00,OVC,OVC,0.00,WeatherDisplay:10.37,2013-12-09 04:40:00,
2013-12-08 23:50:00,26.2,0.0,0.00,SE,124,10.0,14.0,0,0.00,OVC,OVC,0.00,WeatherDisplay:10.37,2013-12-09 04:50:00,